| time (UTC) | temp F | wind direction | speed MPH | gust MPH | rain 1hr in | rain 24hr in | rain mn in | humidity % | barometer mb |
| 20260904090059 | 65 | 0 | 0.0 | 0.0 | 0.00 | 0.00 | 0.00 | 97 | 1022.5 |
| 20260904084604 | 65 | 0 | 0.0 | 0.0 | 0.00 | 0.00 | 0.00 | 97 | 1022.5 |
| 20260904083106 | 65 | 0 | 0.0 | 0.0 | 0.00 | 0.00 | 0.00 | 97 | 1022.5 |
| 20260904081602 | 65 | 0 | 0.0 | 0.0 | 0.00 | 0.00 | 0.00 | 97 | 1022.4 |
| 20260904080105 | 65 | 0 | 0.0 | 0.0 | 0.00 | 0.00 | 0.00 | 96 | 1022.3 |
| 20260904074602 | 66 | 0 | 0.0 | 0.0 | 0.00 | 0.00 | 0.00 | 97 | 1022.4 |
| 20260904073115 | 65 | 0 | 0.0 | 0.0 | 0.00 | 0.00 | 0.00 | 96 | 1022.2 |
| 20260904071558 | 66 | 0 | 0.0 | 0.0 | 0.00 | 0.00 | 0.00 | 96 | 1022.3 |
| 20260904070058 | 66 | 0 | 0.0 | 0.0 | 0.00 | 0.00 | 0.00 | 96 | 1022.3 |
| 20260904064608 | 66 | 0 | 0.0 | 0.0 | 0.00 | 0.00 | 0.00 | 96 | 1022.5 |
| 20260904063107 | 66 | 0 | 0.0 | 0.0 | 0.00 | 0.00 | 0.00 | 95 | 1022.7 |
| 20260904061557 | 67 | 0 | 0.0 | 0.0 | 0.00 | 0.00 | 0.00 | 95 | 1022.9 |
| 20260904060114 | 67 | 0 | 0.0 | 0.0 | 0.00 | 0.00 | 0.00 | 95 | 1023.2 |
| 20260904054612 | 67 | 0 | 0.0 | 0.0 | 0.00 | 0.00 | 0.00 | 94 | 1023.1 |
| 20260904053102 | 67 | 0 | 0.0 | 0.0 | 0.00 | 0.00 | 0.00 | 94 | 1023.4 |
| 20260904051558 | 67 | 0 | 0.0 | 0.0 | 0.00 | 0.00 | 0.00 | 94 | 1023.4 |
| 20260904050056 | 68 | 0 | 0.0 | 0.0 | 0.00 | 0.00 | 0.00 | 93 | 1023.7 |
| 20260904044605 | 68 | 0 | 0.0 | 0.0 | 0.00 | 0.00 | 0.00 | 92 | 1023.8 |
| 20260904043105 | 68 | 99 | 0.0 | 2.0 | 0.00 | 0.00 | 0.00 | 93 | 1023.6 |
| 20260904041605 | 68 | 99 | 0.0 | 1.0 | 0.00 | 0.00 | 0.00 | 92 | 1023.9 |
| 20260904040110 | 69 | 0 | 0.0 | 1.0 | 0.00 | 0.00 | 0.00 | 92 | 1023.9 |
| 20260904034604 | 69 | 0 | 0.0 | 1.0 | 0.00 | 0.00 | 0.00 | 92 | 1023.9 |
| 20260904033059 | 69 | 0 | 0.0 | 1.0 | 0.00 | 0.00 | 0.00 | 91 | 1023.9 |
| 20260904031604 | 69 | 0 | 0.0 | 0.0 | 0.00 | 0.00 | 0.00 | 90 | 1023.9 |
| 20260904030055 | 70 | 0 | 0.0 | 0.0 | 0.00 | 0.00 | 0.00 | 90 | 1024.1 |
| 20260904024602 | 70 | 0 | 0.0 | 0.0 | 0.00 | 0.00 | 0.00 | 89 | 1024.1 |
| 20260904023104 | 70 | 0 | 0.0 | 2.0 | 0.00 | 0.00 | 0.00 | 88 | 1024.1 |
| 20260904021558 | 70 | 0 | 0.0 | 2.0 | 0.00 | 0.00 | 0.00 | 87 | 1024.2 |
| 20260904020101 | 71 | 99 | 0.0 | 2.0 | 0.00 | 0.00 | 0.00 | 87 | 1024.0 |
| 20260904014616 | 71 | 0 | 0.0 | 1.0 | 0.00 | 0.00 | 0.00 | 86 | 1023.7 |
| 20260904013119 | 72 | 0 | 0.0 | 2.0 | 0.00 | 0.00 | 0.00 | 85 | 1023.5 |
| 20260904011559 | 72 | 0 | 0.0 | 1.0 | 0.00 | 0.00 | 0.00 | 84 | 1023.4 |
| 20260904010117 | 72 | 0 | 0.0 | 2.0 | 0.00 | 0.00 | 0.00 | 83 | 1023.1 |
| 20260904004553 | 73 | 99 | 0.0 | 2.0 | 0.00 | 0.00 | 0.00 | 82 | 1022.9 |
| 20260904003125 | 73 | 99 | 0.0 | 2.0 | 0.00 | 0.00 | 0.00 | 81 | 1022.5 |
| 20260904001558 | 74 | 99 | 1.0 | 3.0 | 0.00 | 0.00 | 0.00 | 81 | 1022.6 |
| 20260904000055 | 76 | 0 | 0.0 | 2.0 | 0.00 | 0.00 | 0.00 | 80 | 1022.3 |
| 20260903234603 | 77 | 0 | 0.0 | 2.0 | 0.00 | 0.00 | 0.00 | 78 | 1022.1 |
| 20260903233103 | 79 | 0 | 0.0 | 0.0 | 0.00 | 0.00 | 0.00 | 77 | 1022.1 |
| 20260903231556 | 81 | 0 | 0.0 | 3.0 | 0.00 | 0.00 | 0.00 | 72 | 1022.0 |
| 20260903224601 | 83 | 0 | 0.0 | 4.0 | 0.00 | 0.00 | 0.00 | 65 | 1021.9 |
| 20260903223108 | 84 | 64 | 1.0 | 4.0 | 0.00 | 0.00 | 0.00 | 64 | 1022.0 |
| 20260903221555 | 85 | 0 | 0.0 | 6.0 | 0.00 | 0.00 | 0.00 | 63 | 1022.1 |
| 20260903220055 | 86 | 146 | 2.0 | 5.0 | 0.00 | 0.00 | 0.00 | 62 | 1022.0 |
| 20260903214603 | 86 | 158 | 2.0 | 6.0 | 0.00 | 0.00 | 0.00 | 60 | 1022.0 |
| 20260903213104 | 86 | 136 | 1.0 | 8.0 | 0.00 | 0.00 | 0.00 | 61 | 1022.0 |
| 20260903211608 | 85 | 155 | 2.0 | 7.0 | 0.00 | 0.00 | 0.00 | 64 | 1022.1 |
| 20260903210054 | 84 | 71 | 2.0 | 6.0 | 0.00 | 0.00 | 0.00 | 65 | 1022.1 |
| 20260903204603 | 84 | 136 | 0.0 | 6.0 | 0.00 | 0.00 | 0.00 | 64 | 1022.2 |
| 20260903203100 | 86 | 159 | 3.0 | 8.0 | 0.00 | 0.00 | 0.00 | 61 | 1022.4 |
| 20260903201602 | 88 | 133 | 3.0 | 9.0 | 0.00 | 0.00 | 0.00 | 60 | 1022.4 |
| 20260903194600 | 87 | 70 | 2.0 | 6.0 | 0.00 | 0.00 | 0.00 | 58 | 1022.6 |
| 20260903193105 | 86 | 87 | 0.0 | 6.0 | 0.00 | 0.00 | 0.00 | 57 | 1022.8 |
| 20260903191601 | 87 | 192 | 1.0 | 7.0 | 0.00 | 0.00 | 0.00 | 57 | 1022.9 |
| 20260903190106 | 87 | 173 | 1.0 | 8.0 | 0.00 | 0.00 | 0.00 | 57 | 1022.9 |
| 20260903184600 | 87 | 50 | 1.0 | 5.0 | 0.00 | 0.00 | 0.00 | 57 | 1023.2 |
| 20260903183107 | 86 | 259 | 0.0 | 8.0 | 0.00 | 0.00 | 0.00 | 66 | 1023.3 |
| 20260903181601 | 86 | 320 | 2.0 | 6.0 | 0.00 | 0.00 | 0.00 | 60 | 1023.6 |
| 20260903180059 | 86 | 165 | 1.0 | 5.0 | 0.00 | 0.00 | 0.00 | 59 | 1023.6 |
| 20260903174620 | 86 | 123 | 1.0 | 5.0 | 0.00 | 0.00 | 0.00 | 58 | 1023.8 |
| 20260903173110 | 85 | 300 | 0.0 | 5.0 | 0.00 | 0.00 | 0.00 | 64 | 1024.0 |
| 20260903171604 | 85 | 351 | 2.0 | 5.0 | 0.00 | 0.00 | 0.00 | 59 | 1024.2 |
| 20260903170056 | 85 | 309 | 2.0 | 4.0 | 0.00 | 0.00 | 0.00 | 63 | 1024.2 |
| 20260903164608 | 84 | 46 | 2.0 | 8.0 | 0.00 | 0.00 | 0.00 | 64 | 1024.5 |
| 20260903163055 | 84 | 39 | 3.0 | 7.0 | 0.00 | 0.00 | 0.00 | 64 | 1024.3 |
| 20260903161559 | 84 | 120 | 1.0 | 7.0 | 0.00 | 0.00 | 0.00 | 70 | 1024.4 |
| 20260903160111 | 83 | 168 | 0.0 | 6.0 | 0.00 | 0.00 | 0.00 | 71 | 1024.6 |
| 20260903154556 | 81 | 0 | 0.0 | 4.0 | 0.00 | 0.00 | 0.00 | 72 | 1024.7 |
| 20260903153106 | 80 | 223 | 2.0 | 5.0 | 0.00 | 0.00 | 0.00 | 74 | 1024.8 |
| 20260903151601 | 80 | 221 | 1.0 | 4.0 | 0.00 | 0.00 | 0.00 | 72 | 1024.8 |
| 20260903150100 | 79 | 221 | 2.0 | 4.0 | 0.00 | 0.00 | 0.00 | 76 | 1024.7 |
| 20260903144601 | 77 | 246 | 1.0 | 3.0 | 0.00 | 0.00 | 0.00 | 81 | 1024.7 |
| 20260903143105 | 75 | 246 | 1.0 | 4.0 | 0.00 | 0.00 | 0.00 | 85 | 1024.7 |
| 20260903141614 | 74 | 258 | 1.0 | 3.0 | 0.00 | 0.00 | 0.00 | 88 | 1024.7 |
| 20260903134611 | 69 | 0 | 0.0 | 0.0 | 0.00 | 0.00 | 0.00 | 96 | 1024.8 |
| 20260903133111 | 68 | 0 | 0.0 | 0.0 | 0.00 | 0.00 | 0.00 | 98 | 1024.7 |
| 20260903131604 | 67 | 0 | 0.0 | 0.0 | 0.00 | 0.00 | 0.00 | 98 | 1024.9 |
| 20260903130129 | 67 | 0 | 0.0 | 0.0 | 0.00 | 0.00 | 0.00 | 98 | 1025.0 |
| 20260903124606 | 64 | 0 | 0.0 | 0.0 | 0.00 | 0.00 | 0.00 | 98 | 1024.9 |
| 20260903123107 | 64 | 0 | 0.0 | 0.0 | 0.00 | 0.00 | 0.00 | 98 | 1025.0 |
| 20260903121602 | 63 | 0 | 0.0 | 0.0 | 0.00 | 0.00 | 0.00 | 98 | 1025.0 |
| 20260903120106 | 62 | 0 | 0.0 | 0.0 | 0.00 | 0.00 | 0.00 | 97 | 1025.0 |
| 20260903114604 | 62 | 0 | 0.0 | 0.0 | 0.00 | 0.00 | 0.00 | 97 | 1024.7 |
| 20260903113102 | 63 | 0 | 0.0 | 0.0 | 0.00 | 0.00 | 0.00 | 97 | 1024.5 |
| 20260903111605 | 64 | 0 | 0.0 | 0.0 | 0.00 | 0.00 | 0.00 | 98 | 1024.3 |
| 20260903110058 | 63 | 0 | 0.0 | 0.0 | 0.00 | 0.00 | 0.00 | 97 | 1024.1 |
| 20260903104605 | 63 | 0 | 0.0 | 0.0 | 0.00 | 0.00 | 0.00 | 97 | 1024.0 |
| 20260903103106 | 63 | 0 | 0.0 | 0.0 | 0.00 | 0.00 | 0.00 | 97 | 1023.9 |
| 20260903101605 | 63 | 0 | 0.0 | 0.0 | 0.00 | 0.00 | 0.00 | 97 | 1023.8 |
| 20260903100058 | 63 | 0 | 0.0 | 0.0 | 0.00 | 0.00 | 0.00 | 97 | 1023.8 |
| 20260903094612 | 63 | 0 | 0.0 | 0.0 | 0.00 | 0.00 | 0.00 | 97 | 1023.9 |
| 20260903093102 | 63 | 0 | 0.0 | 0.0 | 0.00 | 0.00 | 0.00 | 97 | 1023.7 |
| 20260903091600 | 64 | 0 | 0.0 | 0.0 | 0.00 | 0.00 | 0.00 | 97 | 1023.7 |